Location: Cork
(51.8990°N, 8.4960°W)
Time: 11:32:16
(UTC+01:00)

Iridium 66 - Visible Passes

Search period start: 27 April 2015 00:00
Search period end: 07 May 2015 00:00
Orbit: 776 x 779 km, 86.4° (Epoch: 26 April)

Date Brightness Start Highest point End Pass type
(mag) Time Alt. Az. Time Alt. Az. Time Alt. Az.
27 Apr 7.1 01:05:08 30° WSW 01:06:48 37° WNW 01:11:38 10° N visible
27 Apr 7.4 22:51:00 19° ESE 22:52:44 23° ENE 22:56:47 10° NNE visible
28 Apr 6.3 00:31:27 41° SW 00:33:05 61° W 00:38:17 10° N visible
28 Apr 8.5 02:13:34 10° WNW 02:15:07 11° WNW 02:16:25 10° NW visible
28 Apr 7.9 22:17:20 11° E 22:19:32 14° ENE 22:22:14 10° NE visible
28 Apr 5.9 23:57:46 43° S 23:59:30 82° E 00:04:46 10° N visible
29 Apr 8.2 01:38:14 13° WSW 01:41:01 18° WNW 01:44:28 10° NNW visible
29 Apr 6.4 23:24:05 33° SE 23:26:02 49° E 23:31:05 10° NNE visible
30 Apr 7.6 01:04:32 19° WSW 01:07:05 28° WNW 01:11:32 10° NNW visible
30 Apr 7.0 22:50:23 21° ESE 22:52:41 30° E 22:57:13 10° NNE visible
01 May 6.8 00:30:50 27° SW 00:33:17 45° WNW 00:38:18 10° N visible
01 May 7.6 22:16:40 12° ESE 22:19:25 19° ENE 22:23:02 10° NNE visible
01 May 6.1 23:57:07 31° SSW 23:59:37 75° W 00:04:52 10° N visible
02 May 8.4 01:38:49 10° W 01:41:27 13° WNW 01:43:52 10° NW visible
02 May 8.1 21:44:51 10° E 21:46:15 11° ENE 21:47:57 10° NE visible
02 May 6.0 23:23:23 28° SSE 23:26:05 67° E 23:31:17 10° N visible
03 May 8.0 01:03:49 12° WSW 01:07:24 21° WNW 01:11:19 10° NNW visible
03 May 6.6 22:49:38 21° SE 22:52:39 40° E 22:57:32 10° NNE visible
04 May 7.4 00:30:05 17° SW 00:33:31 34° WNW 00:38:14 10° N visible
04 May 7.3 22:15:52 13° SE 22:19:20 25° E 22:23:34 10° NNE visible
04 May 6.6 23:56:18 20° SSW 23:59:46 55° W 00:04:55 10° N visible
05 May 7.8 21:43:14 10° ESE 21:46:06 15° ENE 21:49:10 10° NE visible
05 May 6.0 23:22:32 21° S 23:26:09 90° ENE 23:31:25 10° N visible
06 May 8.4 01:04:28 10° WSW 01:07:46 16° WNW 01:10:55 10° NNW visible
06 May 6.2 22:48:44 17° SSE 22:52:39 55° E 22:57:46 10° NNE visible
